Find Starlink 35598

NORAD ID: 66509 Int'l Des: 2025-263 Owner: SPXS Country: US Constellation: starlink operational
LEOCIRCULAR

Live-Position

3D-Globus wird geladen...

Über Starlink 35598

Beschreibung wird geladen...

Nächste Überflüge

Passes for default location (London). Set your location on the main map for personalized predictions.

Höhenverlauf

Loading altitude history...

Zweizeiliger Elementsatz

1 66509U 25263AA 26104.84387156 .00012788 00000-0 47321-3 0 9995
2 66509 42.9984 146.9045 0001965 248.5705 111.4937 15.27594333 24425
Epoch: 14. Apr. 2026 • Age: 12 hours

Aktueller Status

Höhe 492.5 km
Geschwindigkeit 7.62 km/s
Subsatellitenpunkt -37.16°S, 50.11°E
Startdatum 15. Nov. 2025
Alter 0.4 years
Typ internet

Technische Details

Klassifizierung Payload
Masse 575.00 kg
Trockenmasse 530.00 kg
Gesamtmasse 575.00 kg
Länge 0.30 m
Durchmesser 4.10 m
Spannweite 29.00 m
Form Box + pan
Hersteller SPXS
Bus-Typ Starlink V2MO
Phasenstatus In Orbit
Besitzer/Staat SPXS/US

Most Searched